Portada
METAR-TAF:

METAR-TAF

Aeroports :

Camdenton, Missouri, Estats Units d'Amèrica

latitud: 37-58-26N, longitud: 092-41-28W, altitud: 324 m

Observació

L'informe es va fer fa 27 minuts, a les 10:35 UTC
Vent 4 kt del Sud-Est
Temperatura 19°C
Humitat 88%
Pressió 1017 hPa
Visibilitat: 11.3 km
Cel clar

METAR: KOZS 151035Z AUTO 13004KT 7SM CLR 19/17 A3004 RMK AO2

Hora: 06:02 (11:02 UTC)


TAF: manca

Observacions i pronòstics meteorològics de més de 4000 aeroports (METAR i TAF).

Les estacions disponibles són els punts grocs i vermells al mapa.

Posi el ratolí al punt desitjat per veure el nom de l'estació.

Feu clic per veure les observacions i els pronòstics meteorològics.

Per canviar el mapa: feu clic els botons verds amb una creu de color negre per apropar; al botó verd amb un guió per allunyar la imatge; o en les fletxes verdes per a mapes adjacents.


METAR-TAF: